• In Uzbekistan
  • List of Countries
  • For 7 days
  • Water Temperature
  • Satellite Maps
  • Weather Map
  • Weather Widgets
  • user-avatar
    Login

    Hourly Weather Roschino

    Today, 23 April, Tuesday

    Time Temperature Precipitation Wind Pressure Humidity
    00:00 +10°C° 0 mm 1 mps 754 mmHg 52%
    01:00 +9°C° 0 mm 1 mps 754 mmHg 53%
    02:00 +8°C° 0 mm 0 mps 754 mmHg 55%
    03:00 +7°C° 0 mm 0 mps 754 mmHg 57%
    04:00 +7°C° 0 mm 0 mps 754 mmHg 58%
    05:00 +7°C° 0 mm 0 mps 754 mmHg 59%
    06:00 +10°C° 0 mm 1 mps 754 mmHg 55%
    07:00 +12°C° 0 mm 1 mps 755 mmHg 52%
    08:00 +14°C° 0 mm 1 mps 755 mmHg 47%
    09:00 +15°C° 0 mm 1 mps 755 mmHg 43%
    10:00 +17°C° 0 mm 2 mps 755 mmHg 38%
    11:00 +19°C° 0 mm 2 mps 755 mmHg 34%
    12:00 +20°C° 0 mm 1 mps 755 mmHg 32%
    13:00 +20°C° 0 mm 1 mps 755 mmHg 31%
    14:00 +21°C° 0 mm 1 mps 755 mmHg 29%
    15:00 +21°C° 0 mm 1 mps 754 mmHg 31%
    16:00 +20°C° 0 mm 1 mps 754 mmHg 32%
    17:00 +20°C° 0 mm 1 mps 754 mmHg 34%
    18:00 +18°C° 0 mm 1 mps 754 mmHg 38%
    19:00 +15°C° 0 mm 1 mps 754 mmHg 43%
    20:00 +13°C° 0 mm 1 mps 754 mmHg 47%
    21:00 +12°C° 0 mm 1 mps 754 mmHg 49%
    22:00 +12°C° 0 mm 1 mps 754 mmHg 51%
    23:00 +11°C° 0 mm 1 mps 754 mmHg 52%

    Tomorrow, 24 April, Wednesday

    Time Temperature Precipitation Wind Pressure Humidity
    00:00 +11°C° 0 mm 1 mps 754 mmHg 53%
    01:00 +10°C° 0 mm 0 mps 754 mmHg 54%
    02:00 +9°C° 0 mm 0 mps 754 mmHg 54%
    03:00 +9°C° 0 mm 0 mps 754 mmHg 55%
    04:00 +9°C° 0 mm 0 mps 754 mmHg 56%
    05:00 +8°C° 0 mm 0 mps 754 mmHg 57%
    06:00 +11°C° 0 mm 1 mps 755 mmHg 54%
    07:00 +13°C° 0 mm 1 mps 755 mmHg 51%
    08:00 +15°C° 0 mm 1 mps 755 mmHg 47%
    09:00 +18°C° 0 mm 1 mps 755 mmHg 43%
    10:00 +18°C° 0 mm 2 mps 755 mmHg 40%
    11:00 +19°C° 0 mm 2 mps 755 mmHg 36%
    12:00 +20°C° 0 mm 2 mps 754 mmHg 36%
    13:00 +20°C° 0 mm 3 mps 754 mmHg 36%
    14:00 +20°C° 0 mm 3 mps 754 mmHg 36%
    15:00 +20°C° 0 mm 3 mps 754 mmHg 38%
    16:00 +20°C° 0 mm 2 mps 753 mmHg 41%
    17:00 +20°C° 0 mm 2 mps 753 mmHg 43%
    18:00 +18°C° 0 mm 2 mps 753 mmHg 48%
    19:00 +16°C° 0 mm 2 mps 753 mmHg 52%
    20:00 +14°C° 0 mm 2 mps 753 mmHg 57%
    21:00 +14°C° 0 mm 2 mps 753 mmHg 58%
    22:00 +13°C° 0 mm 2 mps 753 mmHg 59%
    23:00 +12°C° 0 mm 2 mps 753 mmHg 60%

    Day after tomorrow, 25 April, Thursday

    Time Temperature Precipitation Wind Pressure Humidity
    00:00 +12°C° 0 mm 2 mps 753 mmHg 61%
    01:00 +12°C° 0 mm 2 mps 753 mmHg 61%
    02:00 +10°C° 0 mm 2 mps 753 mmHg 61%
    03:00 +11°C° 0 mm 1 mps 753 mmHg 62%
    04:00 +11°C° 0 mm 1 mps 753 mmHg 63%
    05:00 +10°C° 0 mm 1 mps 753 mmHg 64%
    06:00 +12°C° 0 mm 1 mps 753 mmHg 60%
    07:00 +14°C° 0 mm 2 mps 753 mmHg 57%
    08:00 +16°C° 0 mm 2 mps 753 mmHg 53%
    09:00 +17°C° 0 mm 2 mps 753 mmHg 48%
    10:00 +18°C° 0 mm 3 mps 753 mmHg 43%
    11:00 +20°C° 0 mm 4 mps 753 mmHg 39%
    12:00 +20°C° 0 mm 4 mps 752 mmHg 38%
    13:00 +21°C° 0 mm 4 mps 752 mmHg 38%
    14:00 +21°C° 0 mm 4 mps 752 mmHg 37%
    15:00 +21°C° 0 mm 3 mps 751 mmHg 39%
    16:00 +21°C° 0 mm 3 mps 751 mmHg 42%
    17:00 +20°C° 0 mm 2 mps 751 mmHg 44%
    18:00 +18°C° 0 mm 2 mps 751 mmHg 49%
    19:00 +17°C° 0 mm 2 mps 750 mmHg 53%
    20:00 +15°C° 0 mm 2 mps 750 mmHg 58%
    21:00 +14°C° 0 mm 2 mps 750 mmHg 60%
    22:00 +13°C° 0 mm 2 mps 750 mmHg 62%
    23:00 +13°C° 0 mm 2 mps 750 mmHg 63%

    26 April, Friday

    Time Temperature Precipitation Wind Pressure Humidity
    00:00 +13°C° 0 mm 2 mps 750 mmHg 64%
    01:00 +12°C° 0 mm 2 mps 750 mmHg 65%
    02:00 +12°C° 0 mm 2 mps 750 mmHg 66%
    03:00 +12°C° 0 mm 2 mps 750 mmHg 67%
    04:00 +10°C° 0 mm 2 mps 749 mmHg 68%
    05:00 +10°C° 0 mm 2 mps 749 mmHg 69%
    06:00 +13°C° 0 mm 2 mps 749 mmHg 65%
    07:00 +13°C° 0 mm 3 mps 749 mmHg 61%
    08:00 +16°C° 0 mm 3 mps 749 mmHg 57%
    09:00 +17°C° 0 mm 4 mps 749 mmHg 52%
    10:00 +19°C° 0 mm 4 mps 749 mmHg 48%
    11:00 +20°C° 0 mm 5 mps 748 mmHg 43%
    12:00 +20°C° 0 mm 5 mps 748 mmHg 42%
    13:00 +21°C° 0 mm 5 mps 747 mmHg 42%
    14:00 +21°C° 0 mm 5 mps 747 mmHg 41%
    15:00 +21°C° 0 mm 4 mps 747 mmHg 43%
    16:00 +21°C° 0 mm 4 mps 746 mmHg 45%
    17:00 +21°C° 0 mm 3 mps 746 mmHg 47%
    18:00 +19°C° 0 mm 3 mps 746 mmHg 53%
    19:00 +17°C° 0 mm 3 mps 745 mmHg 59%
    20:00 +14°C° 0 mm 3 mps 745 mmHg 64%
    21:00 +14°C° 0 mm 3 mps 745 mmHg 65%
    22:00 +13°C° 0 mm 3 mps 745 mmHg 67%
    23:00 +12°C° 0 mm 3 mps 744 mmHg 68%

    27 April, Saturday

    Time Temperature Precipitation Wind Pressure Humidity
    00:00 +12°C° 0 mm 3 mps 744 mmHg 68%
    01:00 +11°C° 0 mm 3 mps 744 mmHg 68%
    02:00 +11°C° 0 mm 3 mps 744 mmHg 69%
    03:00 +10°C° 0 mm 3 mps 743 mmHg 70%
    04:00 +10°C° 0 mm 3 mps 743 mmHg 71%
    05:00 +9°C° 0 mm 3 mps 743 mmHg 72%
    06:00 +11°C° 0 mm 3 mps 742 mmHg 69%
    07:00 +13°C° 0 mm 4 mps 742 mmHg 66%
    08:00 +14°C° 0 mm 4 mps 742 mmHg 63%
    09:00 +17°C° 0 mm 4 mps 742 mmHg 60%
    10:00 +17°C° 0 mm 5 mps 741 mmHg 58%
    11:00 +20°C° 0 mm 5 mps 741 mmHg 55%
    12:00 +21°C° 0 mm 5 mps 741 mmHg 53%
    13:00 +22°C° 0 mm 5 mps 740 mmHg 52%
    14:00 +23°C° 0 mm 5 mps 740 mmHg 50%
    15:00 +23°C° 0 mm 4 mps 740 mmHg 52%
    16:00 +22°C° 0 mm 4 mps 739 mmHg 54%
    17:00 +22°C° 0 mm 3 mps 739 mmHg 56%
    18:00 +20°C° 0.9 mm 3 mps 739 mmHg 65%
    19:00 +18°C° 0.9 mm 3 mps 739 mmHg 75%
    20:00 +16°C° 0.9 mm 2 mps 739 mmHg 84%
    21:00 +16°C° 0.7 mm 2 mps 738 mmHg 87%
    22:00 +16°C° 0.7 mm 3 mps 738 mmHg 91%
    23:00 +14°C° 0.7 mm 3 mps 738 mmHg 94%

    28 April, Sunday

    Time Temperature Precipitation Wind Pressure Humidity
    00:00 +14°C° 0 mm 3 mps 738 mmHg 94%
    01:00 +14°C° 0 mm 3 mps 738 mmHg 95%
    02:00 +14°C° 0 mm 3 mps 738 mmHg 96%
    03:00 +14°C° 0.4 mm 3 mps 738 mmHg 95%
    04:00 +14°C° 0.4 mm 3 mps 738 mmHg 95%
    05:00 +14°C° 0.4 mm 3 mps 738 mmHg 94%
    06:00 +15°C° 1 mm 2 mps 738 mmHg 93%
    07:00 +16°C° 1 mm 2 mps 738 mmHg 92%
    08:00 +16°C° 1 mm 2 mps 739 mmHg 91%
    09:00 +17°C° 1.1 mm 2 mps 739 mmHg 86%
    10:00 +18°C° 1.1 mm 2 mps 739 mmHg 81%
    11:00 +19°C° 1.1 mm 2 mps 739 mmHg 76%
    12:00 +19°C° 1.2 mm 2 mps 740 mmHg 77%
    13:00 +18°C° 1.2 mm 2 mps 740 mmHg 79%
    14:00 +19°C° 1.2 mm 1 mps 740 mmHg 80%
    15:00 +19°C° 0.7 mm 1 mps 740 mmHg 82%
    16:00 +19°C° 0.7 mm 1 mps 740 mmHg 84%
    17:00 +18°C° 0.7 mm 1 mps 740 mmHg 86%
    18:00 +16°C° 0.4 mm 1 mps 741 mmHg 89%
    19:00 +16°C° 0.4 mm 1 mps 741 mmHg 91%
    20:00 +15°C° 0.4 mm 2 mps 741 mmHg 94%
    21:00 +15°C° 0.4 mm 2 mps 741 mmHg 95%
    22:00 +14°C° 0.4 mm 2 mps 741 mmHg 96%
    23:00 +14°C° 0.4 mm 2 mps 742 mmHg 97%
    Show more